This demonstration page uses our WeatherBlox Daily Observations layout. Learn more.

Left ArrowRight Arrow

Hourly Observations for February 18, 2020

Temp ( °F °C ) Dew Point ( °F °C ) Humidity (%) Winds ( mph kmh ) Pressure ( in mb ) Visibility ( mi km ) Precip ( " mm )
12:59 am 00:59 Partly Cloudy with Mist and Fog 42 5.6 40 4.4 92 92 NNE 3 6 30.29 1026 4 6 0.00 0.00
1:59 am 01:59 Partly Cloudy with Mist and Fog 42 5.6 40 4.4 92 92 NE 3 6 30.27 1025 4 6 0.00 0.00
2:59 am 02:59 Partly Cloudy with Mist and Fog 41 5 40 4.4 96 96 Calm 30.25 1025 4 6 0.00 0.00
3:13 am 03:13 Clear with Mist and Fog 41 5 39 3.9 93 93 Calm 30.25 1024 2 3 0.00 0.00
3:17 am 03:17 Clear with Mist and Fog 42 5.6 39 3.9 89 89 Calm 30.25 1024 4 6 0.00 0.00
3:59 am 03:59 Mostly Cloudy with Mist and Fog 42 5.6 40 4.4 92 92 Calm 30.24 1024 4 6 0.00 0.00
4:59 am 04:59 Mostly Cloudy with Mist and Fog 41 5 39 3.9 93 93 Calm 30.24 1024 2 3 0.00 0.00
5:37 am 05:37 Mostly Cloudy with Mist and Fog 40 4.4 39 3.9 97 97 Calm 30.24 1024 5 8 0.00 0.00
5:59 am 05:59 Mostly Cloudy with Mist and Fog 40 4.4 38 3.3 93 93 Calm 30.23 1024 3 5 0.00 0.00
6:06 am 06:06 Mostly Cloudy with Mist and Fog 40 4.4 38 3.3 93 93 Calm 30.23 1024 3 5 0.00 0.00
6:19 am 06:19 Mostly Cloudy with Fog 40 4.4 38 3.3 93 93 Calm 30.23 1024 0 0 0.00 0.00
6:59 am 06:59 Mostly Cloudy with Fog 39 3.9 38 3.3 96 96 Calm 30.22 1024 1 1 0.00 0.00
7:37 am 07:37 Mostly Cloudy with Mist and Fog 41 5 39 3.9 93 93 N 3 6 30.23 1024 1 2 0.00 0.00
7:59 am 07:59 Partly Cloudy with Mist and Fog 44 6.7 43 6.1 96 96 NNW 3 6 30.23 1024 2 3 0.00 0.00
8:15 am 08:15 Mostly Cloudy with Mist and Fog 47 8.3 45 7.2 93 93 NW 3 6 30.24 1024 3 5 0.00 0.00
8:59 am 08:59 Cloudy with Mist and Fog 48 8.9 46 7.8 93 93 NNW 3 6 30.23 1024 3 5 0.00 0.00
9:13 am 09:13 Cloudy with Mist and Fog 49 9.4 46 7.8 90 90 Calm 30.24 1024 3 5 0.00 0.00
9:59 am 09:59 Cloudy with Mist and Fog 52 11.1 50 10 93 93 Calm 30.23 1024 3 5 0.00 0.00
10:09 am 10:09 Cloudy with Mist and Fog 52 11.1 50 10 93 93 VRB 3 6 30.23 1024 3 4 0.00 0.00
10:24 am 10:24 Cloudy with Mist and Fog 53 11.7 50 10 89 89 VRB 3 6 30.24 1024 3 4 0.00 0.00
10:59 am 10:59 Mostly Cloudy with Mist and Fog 54 12.2 49 9.4 83 83 NW 3 6 30.22 1024 3 4 0.00 0.00
11:59 am 11:59 Mostly Cloudy 58 14.4 51 10.6 78 78 SW 9 15 30.19 1022 3 4 0.00 0.00
12:07 pm 12:07 Mostly Cloudy with Mist and Fog 57 13.9 50 10 78 78 SW 7 11 30.18 1022 5 8 0.00 0.00
12:59 pm 12:59 Cloudy with Mist and Fog 56 13.3 50 10 81 81 WNW 9 15 30.15 1021 5 8 0.00 0.00
1:59 pm 13:59 Cloudy with Mist and Fog 58 14.4 48 8.9 70 70 W 7 11 30.11 1020 5 8 0.00 0.00
2:59 pm 14:59 Mostly Cloudy 61 16.1 48 8.9 63 63 VRB 5 7 30.09 1019 10 16 0.00 0.00
3:59 pm 15:59 Mostly Cloudy 59 15 44 6.7 58 58 W 6 9 30.08 1019 10 16 0.00 0.00
4:59 pm 16:59 Mostly Cloudy 59 15 45 7.2 60 60 SSW 5 7 30.07 1018 10 16 0.00 0.00
5:59 pm 17:59 Mostly Cloudy 59 15 45 7.2 60 60 S 7 11 30.06 1018 10 16 0.00 0.00
6:59 pm 18:59 Mostly Cloudy 58 14.4 46 7.8 65 65 SSW 7 11 30.08 1019 10 16 0.00 0.00
7:59 pm 19:59 Mostly Cloudy 58 14.4 46 7.8 65 65 SSW 7 11 30.08 1019 10 16 0.00 0.00
8:59 pm 20:59 Mostly Cloudy 58 14.4 48 8.9 70 70 SSW 9 15 30.08 1019 10 16 0.00 0.00
9:59 pm 21:59 Mostly Cloudy 58 14.4 49 9.4 72 72 SSW 10 17 30.07 1018 10 16 0.00 0.00
10:59 pm 22:59 Cloudy 59 15 50 10 72 72 SW 7 11 30.06 1018 10 16 0.00 0.00
11:59 pm 23:59 Cloudy 58 14.4 52 11.1 81 81 SW 9 15 30.06 1018 10 16 0.00 0.00

Powered by AerisWeather